Location: Saint Louis
(38.6272°N, 90.1978°W)
Time: 15:46:46
(UTC-05:00)

ISS - Pass Details

Date: 17 September 2013
Orbit: 402 x 406 km, 51.6° (Epoch: 30 August)

Event Time Altitude Azimuth Distance (km) Brightness Sun altitude
Exits shadow 05:11:01 25° 326° (NW) 936 -1.7 -18.7°
Maximum altitude 05:11:15 25° 333° (NNW) 931 -1.6 -18.6°
Drops below altitude 10° 05:14:11 10° 30° (NNE) 1,547 0.3 -18.1°
Sets 05:16:34 0° 44° (NE) 2,414 1.7 -17.6°
